Total_Precipitation_Accumulation
2.24 2.32 2.25 2.22 2.14 2.06 1.93 1.75 1.71 1.65 1.53 1.43 1.37 1.33 1.31 1.34 1.33 1.37 1.35 1.31 1.27 1.24 1.20 1.18 1.20 1.25 1.33 1.32 1.36 1.49 1.71 1.91 1.95 1.61 1.49 1.59 1.72 1.66 1.68 1.59 1.47 1.44 1.47
1.88 2.03 2.10 2.02 1.83 1.73 1.65 1.57 1.48 1.41 1.36 1.30 1.20 1.15 1.13 1.09 1.08 1.09 1.12 1.13 1.13 1.08 1.10 1.15 1.15 1.18 1.23 1.29 1.35 1.41 1.56 1.81 1.97 1.88 1.65 1.68 1.73 1.70 1.77 1.72 1.49 1.34 1.40
1.65 1.68 1.69 1.66 1.59 1.49 1.46 1.45 1.34 1.28 1.22 1.15 1.10 1.09 1.03 1.02 0.97 0.94 0.97 1.04 1.04 1.01 1.04 1.10 1.15 1.29 1.26 1.28 1.35 1.39 1.51 1.65 1.93 1.99 1.79 1.77 1.84 1.86 1.99 1.84 1.65 1.59 1.33
1.38 1.43 1.43 1.43 1.42 1.37 1.27 1.25 1.23 1.21 1.16 1.11 1.09 1.02 0.97 0.94 0.94 0.93 0.92 0.96 0.98 0.98 1.03 1.10 1.15 1.27 1.34 1.38 1.38 1.44 1.52 1.65 1.83 1.98 1.92 1.90 1.96 2.01 2.04 1.98 1.85 1.70 1.52
1.30 1.27 1.32 1.37 1.37 1.32 1.30 1.28 1.22 1.16 1.08 1.07 1.06 1.01 0.96 0.90 0.86 0.88 0.89 0.91 0.99 1.01 0.99 1.00 1.05 1.16 1.26 1.25 1.17 1.24 1.42 1.64 1.70 1.88 1.93 1.96 1.96 2.04 1.97 1.77 1.70 1.66 1.50
1.32 1.28 1.29 1.30 1.28 1.26 1.25 1.21 1.17 1.13 1.11 1.07 1.03 0.99 0.94 0.78 0.82 0.85 0.85 0.92 0.97 0.98 0.97 0.96 0.91 0.91 0.90 0.92 0.96 1.03 1.18 1.46 1.79 2.00 1.96 1.93 1.82 1.76 1.80 1.75 1.76 1.76 1.70
1.46 1.33 1.30 1.26 1.18 1.15 1.06 1.04 1.11 1.12 1.09 1.02 0.96 0.96 0.94 0.85 0.80 0.74 0.79 0.88 0.96 1.02 1.06 1.04 0.83 0.72 0.82 0.88 0.93 0.98 1.10 1.28 1.60 1.96 2.04 1.83 1.77 1.73 1.79 1.79 1.85 1.89 1.76
1.44 1.30 1.22 1.19 1.14 1.11 1.09 1.09 1.10 1.09 1.05 1.06 1.02 1.01 1.01 0.88 0.79 0.71 0.75 0.82 0.93 0.96 0.98 1.01 1.02 0.93 0.88 0.96 1.02 1.09 1.20 1.32 1.44 1.56 1.87 1.68 1.48 1.53 1.64 1.71 1.82 1.84 1.74
1.44 1.24 1.12 1.09 1.02 1.01 1.04 1.06 1.04 1.03 1.00 0.97 0.98 0.99 1.05 0.99 0.85 0.75 0.71 0.77 0.87 0.88 0.85 0.84 0.84 0.87 0.97 1.14 1.24 1.42 1.53 1.62 1.54 1.70 1.86 1.80 1.66 1.62 1.54 1.65 1.91 1.95 1.83
1.22 1.08 1.03 1.03 0.95 0.93 0.96 0.96 0.94 0.94 0.94 0.92 0.91 0.94 0.97 0.90 0.76 0.64 0.62 0.68 0.81 0.85 0.88 0.86 0.79 0.75 0.88 1.06 1.30 1.59 1.73 1.79 1.66 1.78 2.06 2.08 1.90 1.91 1.92 1.84 2.00 2.07 1.96
1.02 0.95 0.98 0.96 0.88 0.84 0.86 0.89 0.89 0.86 0.88 0.90 0.86 0.87 0.81 0.70 0.63 0.55 0.53 0.58 0.70 0.81 0.86 0.92 0.89 0.82 0.87 1.08 1.29 1.49 1.65 1.70 1.74 1.83 1.87 1.90 1.98 2.02 2.03 1.99 1.98 1.96 1.91
0.93 0.89 0.93 0.95 0.73 0.63 0.73 0.76 0.79 0.87 0.88 0.88 0.87 0.80 0.68 0.63 0.53 0.50 0.50 0.50 0.55 0.71 0.89 0.90 0.91 0.89 0.93 1.13 1.28 1.54 1.76 1.84 1.81 1.86 1.73 1.63 1.61 1.65 1.74 1.76 1.74 1.69 1.62
0.89 0.91 0.89 0.86 0.78 0.69 0.72 0.72 0.77 0.83 0.81 0.79 0.79 0.75 0.62 0.60 0.53 0.47 0.49 0.53 0.56 0.64 0.80 0.87 0.88 0.90 1.02 1.31 1.48 1.66 1.85 1.97 2.00 1.88 1.66 1.53 1.41 1.37 1.39 1.49 1.57 1.58 1.48
0.92 0.93 0.91 0.87 0.79 0.74 0.75 0.69 0.69 0.71 0.70 0.67 0.68 0.68 0.64 0.61 0.54 0.50 0.54 0.60 0.64 0.67 0.77 0.92 1.00 1.03 1.17 1.47 1.68 1.88 1.95 1.90 1.76 1.70 1.60 1.50 1.36 1.30 1.33 1.30 1.36 1.42 1.45
0.93 0.89 0.87 0.77 0.73 0.73 0.68 0.56 0.52 0.51 0.51 0.56 0.61 0.60 0.58 0.55 0.51 0.53 0.55 0.56 0.61 0.64 0.72 0.91 1.09 1.19 1.35 1.54 1.72 1.81 1.80 1.70 1.61 1.44 1.37 1.43 1.41 1.33 1.31 1.24 1.23 1.27 1.35
0.87 0.84 0.77 0.70 0.66 0.62 0.64 0.56 0.46 0.43 0.40 0.39 0.42 0.42 0.43 0.49 0.50 0.51 0.51 0.54 0.58 0.64 0.72 0.92 1.08 1.16 1.32 1.52 1.66 1.64 1.56 1.49 1.39 1.28 1.24 1.21 1.20 1.16 1.17 1.15 1.08 1.09 1.17
0.74 0.72 0.68 0.65 0.62 0.58 0.61 0.63 0.60 0.45 0.35 0.34 0.37 0.38 0.41 0.43 0.41 0.41 0.45 0.51 0.53 0.59 0.68 0.89 1.03 1.16 1.35 1.46 1.48 1.45 1.43 1.35 1.26 1.22 1.18 1.10 1.03 1.01 1.00 0.97 0.96 0.99 0.97
0.56 0.54 0.53 0.58 0.59 0.57 0.53 0.51 0.52 0.54 0.51 0.44 0.39 0.37 0.35 0.35 0.33 0.34 0.39 0.44 0.49 0.53 0.67 0.87 1.01 1.11 1.22 1.29 1.36 1.39 1.36 1.26 1.18 1.17 1.21 1.16 1.06 0.99 0.92 0.90 0.89 0.86 0.87
0.46 0.48 0.43 0.43 0.47 0.47 0.45 0.45 0.45 0.48 0.49 0.49 0.44 0.38 0.36 0.34 0.34 0.37 0.41 0.44 0.52 0.61 0.70 0.82 0.93 1.03 1.07 1.07 1.13 1.19 1.19 1.19 1.13 1.10 1.09 1.10 1.03 0.95 0.85 0.78 0.76 0.67 0.69
0.35 0.33 0.32 0.33 0.36 0.39 0.39 0.41 0.42 0.41 0.42 0.43 0.42 0.38 0.38 0.44 0.46 0.49 0.48 0.45 0.51 0.60 0.69 0.78 0.86 0.92 0.90 0.88 0.88 0.91 0.96 1.00 0.99 0.94 0.92 0.93 0.91 0.84 0.77 0.72 0.71 0.69 0.68
0.29 0.28 0.29 0.28 0.28 0.29 0.28 0.29 0.32 0.35 0.37 0.40 0.38 0.36 0.45 0.50 0.54 0.56 0.55 0.54 0.56 0.59 0.63 0.66 0.70 0.74 0.72 0.73 0.74 0.76 0.81 0.85 0.86 0.86 0.83 0.81 0.77 0.76 0.69 0.66 0.63 0.61 0.59
0.25 0.26 0.28 0.27 0.26 0.24 0.23 0.23 0.26 0.28 0.29 0.34 0.38 0.40 0.50 0.50 0.55 0.59 0.62 0.62 0.61 0.60 0.57 0.57 0.57 0.57 0.58 0.61 0.62 0.62 0.65 0.68 0.75 0.80 0.81 0.76 0.68 0.64 0.59 0.56 0.58 0.59 0.59
0.27 0.26 0.27 0.29 0.27 0.25 0.24 0.25 0.26 0.26 0.27 0.30 0.33 0.38 0.46 0.54 0.60 0.66 0.67 0.65 0.63 0.60 0.55 0.54 0.55 0.56 0.56 0.54 0.54 0.57 0.61 0.63 0.69 0.77 0.81 0.75 0.65 0.59 0.54 0.51 0.54 0.59 0.58
0.29 0.28 0.29 0.30 0.29 0.27 0.27 0.27 0.27 0.28 0.30 0.33 0.35 0.38 0.43 0.51 0.58 0.66 0.71 0.69 0.65 0.62 0.58 0.55 0.55 0.55 0.54 0.52 0.48 0.45 0.45 0.51 0.60 0.67 0.70 0.70 0.60 0.53 0.48 0.48 0.48 0.49 0.53
0.32 0.31 0.29 0.28 0.28 0.28 0.27 0.26 0.26 0.28 0.29 0.30 0.32 0.33 0.36 0.41 0.47 0.56 0.66 0.70 0.71 0.71 0.65 0.61 0.60 0.57 0.51 0.44 0.38 0.34 0.40 0.48 0.54 0.57 0.61 0.59 0.51 0.47 0.46 0.47 0.46 0.44 0.46
0.30 0.31 0.29 0.26 0.24 0.25 0.25 0.26 0.27 0.29 0.30 0.29 0.28 0.29 0.31 0.34 0.39 0.46 0.54 0.60 0.65 0.71 0.75 0.76 0.72 0.58 0.47 0.40 0.37 0.37 0.39 0.40 0.43 0.48 0.51 0.50 0.43 0.42 0.45 0.45 0.40 0.41 0.44